Location: Newark
(46.7000°N, 60.6000°W)
Time: 05:26:22
(UTC+00:00)

A-11 Canister half - Pass Details

Date: 31 October 2020
Orbit: 1525 x 1684 km, 47.3° (Epoch: 27 November)

Event Time Altitude Azimuth Distance (km) Brightness Sun altitude
Rises 19:08:18 0° 253° (WSW) 4,789 12.9 13.9°
Reaches altitude 10° 19:11:25 10° 253° (WSW) 3,784 12.6 13.5°
Maximum altitude 19:21:00 86° 167° (SSE) 1,556 9.3 12.2°
Drops below altitude 10° 19:30:22 10° 79° (E) 3,699 10.5 10.9°
Sets 19:33:23 0° 79° (E) 4,678 11.0 10.5°
